[[{"header":{"parameterUnit":"m.s-1","parameterCategory":1,"la1":30.2991,"la2":30.254,"lo1":-89.0895,"lo2":-89.0444,"dy":0.0017,"dx":0.0017,"nx":28,"ny":28,"refTime":"2025-04-16T03:00:00:Z","depth":0,"parameterNumber":2,"parameterNumberName":"U-component_of_WINDS"},"data":[0,0,0,0,0,0,0,0,0,0,0,0,0,0,0,0,0,0,0,0,0,0,0,0,0,0,0,0,0,0,0,0,0,0,0,0,0,0,0,0,0,0,0,0,0,0,0,0,0,0,0,0,0,0,0,0,0,0,-3.5314,-3.5314,0,-3.5342,-3.5342,-3.5342,-3.532,-3.5319,-3.5318,-3.5317,-3.5345,-3.5346,-3.5348,0,0,0,0,0,0,0,0,0,0,0,0,0,-3.5243,-3.5244,-3.5314,-3.5314,-3.5315,-3.5342,-3.5342,-3.5343,-3.532,-3.5319,-3.5318,-3.5317,-3.5344,-3.5346,-3.5348,0,0,0,0,0,0,0,0,0,0,0,0,0,-3.5272,-3.5244,-3.5314,-3.5307,-3.5307,-3.5342,-3.5342,-3.5343,-3.532,-3.5319,-3.5318,-3.5316,-3.5343,-3.5346,-3.5348,-3.5391,0,0,-3.5356,-3.5357,0,0,0,0,0,0,0,0,-3.5271,-3.5275,-3.5308,-3.5307,-3.5307,-3.5326,-3.5327,-3.5359,-3.5321,-3.5315,-3.5317,-3.5316,-3.5339,-3.5342,-3.535,-3.5393,-3.5394,-3.5356,-3.5357,-3.5358,-3.5359,0,0,0,0,0,0,0,-3.5269,-3.5274,-3.5325,-3.5308,-3.5308,-3.5303,-3.5305,-3.5333,-3.5335,-3.5315,-3.5314,-3.5318,-3.5339,-3.5348,-3.5351,-3.5394,-3.5356,-3.5358,-3.5359,-3.536,-3.5475,-3.5476,0,0,0,0,0,0,-3.5267,-3.5272,-3.5324,-3.5326,-3.5285,-3.5305,-3.5308,-3.5321,-3.5335,-3.5335,-3.5319,-3.5316,-3.5345,-3.5348,-3.5352,-3.5403,-3.5358,-3.536,-3.5362,-3.5473,-3.5475,-3.5477,0,0,0,0,0,0,-3.5266,-3.5272,-3.5323,-3.5299,-3.5305,-3.5308,-3.5323,-3.5323,-3.5332,-3.5337,-3.5337,-3.5328,-3.5344,-3.5348,-3.5382,-3.5404,-3.5362,-3.5364,-3.5471,-3.5474,-3.5476,-3.5506,0,0,0,0,0,0,-3.5264,-3.5272,-3.5288,-3.5299,-3.5306,-3.5352,-3.5324,-3.5324,-3.5336,-3.5333,-3.5345,-3.5346,-3.5343,-3.5379,-3.5384,-3.5406,-3.5366,-3.5469,-3.5473,-3.5475,-3.5503,-3.551,-3.5515,0,0,0,0,0,-3.5261,-3.5295,-3.5289,-3.5295,-3.5326,-3.5354,-3.5358,-3.5354,-3.5338,-3.5354,-3.5358,-3.5346,-3.5401,-3.5382,-3.5389,-3.5412,-3.5468,-3.5472,-3.5475,-3.5501,-3.5508,-3.5515,0,0,0,0,0,0,-3.5285,-3.5296,-3.5289,-3.5327,-3.534,-3.535,-3.537,-3.5362,-3.5379,-3.5375,-3.537,-3.5373,-3.5408,-3.5414,-3.5392,-3.5455,-3.5432,-3.5437,-3.5449,-3.5457,-3.5462,-3.5459,-3.5368,0,0,0,0,0,-3.5295,-3.5316,-3.5325,-3.5358,-3.5364,-3.5367,-3.5378,-3.5375,-3.5387,-3.5392,-3.5398,-3.5411,-3.5432,-3.5445,-3.5464,-3.5505,-3.5508,-3.5525,-3.553,-3.5535,-3.5539,-3.5561,-3.5569,-3.5489,-3.5489,-3.5489,0,0,-3.5314,-3.5323,-3.5337,-3.5363,-3.5372,-3.5394,-3.5371,-3.5395,-3.5412,-3.5396,-3.5428,-3.5433,-3.5447,-3.5485,-3.5502,-3.5491,-3.5562,-3.554,-3.5543,-3.5544,-3.5566,-3.5573,-3.558,-3.5491,-3.5491,-3.549,0,0,-3.5361,-3.5371,-3.5399,-3.541,-3.5425,-3.5426,-3.5433,-3.5446,-3.5449,-3.5481,-3.547,-3.549,-3.5525,-3.5536,-3.5546,-3.5601,-3.559,-3.5608,-3.5636,-3.5658,-3.5665,-3.567,-3.5689,-3.5696,-3.5612,-3.5612,-3.5612,0,-3.5384,-3.5417,-3.5415,-3.5441,-3.5452,-3.5441,-3.547,-3.548,-3.55,-3.5509,-3.5496,-3.5541,-3.555,-3.559,-3.5604,-3.5613,-3.562,-3.5604,-3.5664,-3.567,-3.5675,-3.5692,-3.57,-3.5614,-3.5613,-3.5613,-3.5613,0,-3.5444,-3.5468,-3.5489,-3.551,-3.5524,-3.5551,-3.5554,-3.5569,-3.5565,-3.5568,-3.5602,-3.5613,-3.5634,-3.5644,-3.564,-3.5685,-3.5677,-3.5665,-3.5641,-3.5684,-3.5701,-3.5708,-3.5616,-3.5616,-3.5615,-3.5615,0,0,-3.5503,-3.5524,-3.5532,-3.5542,-3.5559,-3.5577,-3.5605,-3.5626,-3.5639,-3.5655,-3.5678,-3.5709,-3.5699,-3.571,-3.5708,-3.5728,-3.577,-3.5713,-3.5713,-3.5722,-3.5819,-3.5827,-3.5835,-3.5765,-3.5766,-3.5767,-3.5818,0,-3.555,-3.5598,-3.5598,-3.5642,-3.5664,-3.5655,-3.5679,-3.5692,-3.5697,-3.5717,-3.5722,-3.5744,-3.5729,-3.5736,-3.5755,-3.5761,-3.5789,-3.5758,-3.5785,-3.5786,-3.5779,-3.5844,-3.5852,-3.5899,-3.5824,-3.5826,-3.5826,0,-3.561,-3.5629,-3.5675,-3.569,-3.57,-3.5721,-3.5742,-3.5761,-3.5777,-3.5779,-3.5793,-3.5789,-3.5817,-3.5796,-3.5835,-3.5813,-3.5825,-3.583,-3.5832,-3.5832,-3.5807,-3.5844,-3.5914,-3.592,-3.5837,-3.5836,-3.5835,0,-3.5647,-3.5684,-3.5716,-3.5725,-3.5744,-3.576,-3.5768,-3.5783,-3.5797,-3.5815,-3.5824,-3.5846,-3.5857,-3.5874,-3.5876,-3.586,-3.5916,-3.5894,-3.5918,-3.5918,-3.5927,-3.5926,-3.5998,-3.5939,-3.5939,-3.5939,-3.5938,0,-3.5698,-3.5727,-3.5733,-3.5753,-3.5785,-3.5786,-3.5818,-3.5826,-3.5839,-3.586,-3.5855,-3.5875,-3.5877,-3.5898,-3.59,-3.5933,-3.5938,-3.5941,-3.594,-3.594,-3.5939,-3.5945,-3.5941,-3.5941,-3.594,-3.594,-3.5939,0,-3.5744,-3.5749,-3.5784,-3.58,-3.5805,-3.5828,-3.5842,-3.5861,-3.5867,-3.5894,-3.5901,-3.5909,-3.5934,-3.5938,-3.5967,-3.5969,-3.6007,-3.6005,-3.6002,-3.6001,-3.6024,-3.6021,-3.61,-3.611,-3.6046,-3.6047,-3.6047,0,-3.5775,-3.5796,-3.5816,-3.583,-3.584,-3.5863,-3.5877,-3.588,-3.5895,-3.5916,-3.5933,-3.5957,-3.5977,-3.6017,-3.6026,-3.6049,-3.6045,-3.6072,-3.6048,-3.6048,-3.6044,-3.6042,-3.6044,-3.6075,-3.6076,-3.6077,-3.6077,0,-3.5829,-3.5831,-3.5852,-3.5875,-3.5892,-3.591,-3.5927,-3.5939,-3.5944,-3.5962,-3.5988,-3.6003,-3.6034,-3.6058,-3.6081,-3.609,-3.6085,-3.6085,-3.6091,-3.609,-3.6087,-3.6088,-3.6012,-3.6082,-3.6082,-3.6081,-3.6081,-3.6081,-3.5867,-3.5886,-3.5903,-3.5927,-3.5941,-3.5957,-3.5976,-3.5985,-3.6007,-3.6032,-3.6033,-3.6061,-3.6078,-3.6109,-3.612,-3.6142,-3.6134,-3.6143,-3.6145,-3.6147,-3.6149,-3.6085,-3.6147,-3.6146,-3.6146,-3.6146,-3.6146,0,-3.592,-3.5931,-3.5953,-3.5978,-3.5997,-3.5992,-3.6011,-3.6027,-3.6052,-3.6069,-3.6089,-3.6119,-3.6143,-3.6155,-3.6179,-3.6195,-3.6193,-3.6201,-3.6199,-3.6201,-3.6155,-3.6147,-3.6202,-3.6202,-3.6202,-3.6202,-3.6202,-3.6202,-3.595,-3.5982,-3.5987,-3.6026,-3.6037,-3.6065,-3.6076,-3.6092,-3.6105,-3.6139,-3.616,-3.6168,-3.6183,-3.6209,-3.6231,-3.6234,-3.6243,-3.6252,-3.6253,-3.621,-3.6204,-3.6199,-3.619,-3.6254,-3.6254,-3.6297,-3.6297,-3.6298]},{"header":{"parameterUnit":"m.s-1","parameterCategory":1,"la1":30.2991,"la2":30.254,"lo1":-89.0895,"lo2":-89.0444,"dy":0.0017,"dx":0.0017,"nx":28,"ny":28,"refTime":"2025-04-16T03:00:00:Z","depth":0,"parameterNumber":3,"parameterNumberName":"V-component_of_WINDS"},"data":[0,0,0,0,0,0,0,0,0,0,0,0,0,0,0,0,0,0,0,0,0,0,0,0,0,0,0,0,0,0,0,0,0,0,0,0,0,0,0,0,0,0,0,0,0,0,0,0,0,0,0,0,0,0,0,0,0,0,4.9342,4.9342,0,4.9313,4.9312,4.9312,4.9309,4.9309,4.9309,4.931,4.9274,4.9273,4.9271,0,0,0,0,0,0,0,0,0,0,0,0,0,4.9392,4.9391,4.9342,4.9342,4.9342,4.9313,4.9312,4.9312,4.9309,4.9309,4.931,4.931,4.9274,4.9273,4.9271,0,0,0,0,0,0,0,0,0,0,0,0,0,4.9367,4.9391,4.9342,4.9337,4.9336,4.9313,4.9312,4.9312,4.9309,4.9309,4.931,4.931,4.9275,4.9273,4.9271,4.925,0,0,4.9265,4.9265,0,0,0,0,0,0,0,0,4.9369,4.9365,4.9338,4.9337,4.9336,4.9315,4.9317,4.9291,4.9309,4.9319,4.931,4.931,4.9287,4.9284,4.9277,4.9248,4.9247,4.9265,4.9264,4.9263,4.9263,0,0,0,0,0,0,0,4.937,4.9367,4.933,4.9337,4.9336,4.9334,4.9331,4.9312,4.93,4.9318,4.9318,4.9315,4.9286,4.9279,4.9276,4.9246,4.9265,4.9264,4.9262,4.9262,4.92,4.9199,0,0,0,0,0,0,4.9374,4.9368,4.9331,4.933,4.9354,4.9333,4.933,4.9321,4.9301,4.9298,4.9314,4.9315,4.9282,4.9279,4.9275,4.925,4.9263,4.9262,4.926,4.92,4.92,4.9199,0,0,0,0,0,0,4.9375,4.9371,4.9333,4.9349,4.9344,4.9332,4.9322,4.932,4.9313,4.9298,4.9295,4.9309,4.9282,4.9278,4.9257,4.9249,4.9261,4.9259,4.9201,4.92,4.92,4.9199,0,0,0,0,0,0,4.9376,4.9371,4.9364,4.9349,4.9343,4.9316,4.9322,4.9319,4.9311,4.9311,4.9292,4.929,4.9282,4.926,4.9255,4.9246,4.9258,4.9202,4.9201,4.92,4.92,4.9198,4.9197,0,0,0,0,0,4.9378,4.9363,4.9363,4.9359,4.9334,4.9316,4.9312,4.9306,4.931,4.9302,4.9292,4.929,4.9251,4.9258,4.9252,4.9243,4.9202,4.9201,4.92,4.92,4.9199,4.9197,0,0,0,0,0,0,4.9375,4.9361,4.9361,4.9341,4.933,4.9315,4.9305,4.9304,4.929,4.929,4.9281,4.9277,4.9257,4.9248,4.9256,4.9222,4.9227,4.9224,4.9229,4.9227,4.9226,4.9228,4.9256,0,0,0,0,0,4.9373,4.936,4.9348,4.9332,4.9326,4.9317,4.9308,4.9305,4.9292,4.9287,4.9275,4.9262,4.9246,4.9236,4.9221,4.9199,4.9195,4.919,4.9188,4.9187,4.9185,4.9174,4.9172,4.9195,4.9195,4.9196,0,0,4.9366,4.9357,4.9349,4.9331,4.9322,4.9308,4.9312,4.9298,4.9288,4.9284,4.9264,4.9256,4.924,4.9219,4.9209,4.921,4.9178,4.9186,4.9185,4.9184,4.9172,4.917,4.9168,4.9195,4.9195,4.9195,0,0,4.9348,4.934,4.9326,4.9317,4.9305,4.9299,4.9295,4.9281,4.9276,4.9257,4.9254,4.9241,4.9215,4.9204,4.9195,4.9175,4.9173,4.9171,4.9164,4.9153,4.9151,4.9149,4.9142,4.914,4.9169,4.9169,4.9169,0,4.9341,4.9322,4.9318,4.9305,4.9297,4.9295,4.9281,4.9272,4.9254,4.9248,4.9251,4.9219,4.9208,4.9185,4.918,4.9173,4.9168,4.9172,4.9152,4.915,4.9148,4.9142,4.9139,4.9168,4.9169,4.9169,4.9169,0,4.9315,4.9302,4.9292,4.9278,4.9269,4.9254,4.9247,4.9238,4.9236,4.9229,4.921,4.9197,4.918,4.9175,4.9171,4.9151,4.9153,4.9154,4.9158,4.9146,4.914,4.9137,4.9168,4.9168,4.9168,4.9168,0,0,4.9293,4.9278,4.9274,4.9268,4.9255,4.9244,4.923,4.9216,4.9208,4.9196,4.9184,4.9163,4.9164,4.9154,4.9149,4.9139,4.9126,4.9142,4.9141,4.9139,4.9104,4.9104,4.9101,4.9124,4.9124,4.9124,4.9106,0,4.9273,4.925,4.9247,4.9225,4.9214,4.9213,4.9201,4.9191,4.9185,4.9173,4.9165,4.9151,4.9154,4.9148,4.9138,4.9129,4.9118,4.9131,4.9112,4.9111,4.9116,4.9098,4.9097,4.908,4.9103,4.9103,4.9102,0,4.9247,4.9237,4.9216,4.9206,4.9201,4.919,4.9177,4.9166,4.9155,4.9151,4.9141,4.9138,4.9123,4.9128,4.9107,4.9116,4.9108,4.9102,4.9102,4.9099,4.9106,4.9095,4.9075,4.9072,4.9098,4.9099,4.9099,0,4.9234,4.9215,4.92,4.9195,4.9182,4.9175,4.9169,4.9158,4.915,4.9139,4.9133,4.9119,4.9112,4.91,4.9094,4.9098,4.9073,4.9078,4.9069,4.9069,4.9063,4.9063,4.9041,4.9058,4.9058,4.9058,4.9058,0,4.9213,4.9199,4.9194,4.9185,4.917,4.9166,4.9151,4.9145,4.9136,4.9125,4.9123,4.9112,4.9104,4.9092,4.9087,4.907,4.9066,4.9062,4.9061,4.9063,4.9063,4.9057,4.9058,4.9058,4.9058,4.9058,4.9058,0,4.9195,4.9191,4.9175,4.9165,4.9162,4.9152,4.9143,4.9134,4.9129,4.9115,4.9111,4.9103,4.9089,4.9081,4.9063,4.9059,4.9041,4.904,4.9045,4.9045,4.9037,4.9038,4.901,4.9006,4.9025,4.9025,4.9025,0,4.9182,4.9172,4.9162,4.9156,4.9151,4.914,4.9132,4.9128,4.912,4.9108,4.91,4.9087,4.9076,4.9053,4.9044,4.9031,4.903,4.9021,4.9027,4.903,4.903,4.9031,4.903,4.9019,4.9019,4.9019,4.9019,0,4.9159,4.9158,4.9148,4.9138,4.913,4.9122,4.9113,4.9107,4.9102,4.9093,4.908,4.9072,4.9055,4.9041,4.9028,4.902,4.9018,4.9017,4.9015,4.9016,4.902,4.9018,4.9042,4.9018,4.9018,4.9018,4.9018,4.9018,4.9143,4.9135,4.9128,4.9117,4.9111,4.9103,4.9095,4.909,4.9079,4.9067,4.9064,4.9051,4.904,4.9022,4.9015,4.9003,4.9005,4.9001,4.9,4.8999,4.8999,4.9022,4.9001,4.9001,4.9001,4.9001,4.9001,0,4.912,4.9116,4.9107,4.9096,4.9088,4.909,4.9081,4.9074,4.9062,4.9054,4.9044,4.9029,4.9017,4.9008,4.8995,4.8988,4.8987,4.8984,4.8985,4.8983,4.8998,4.9002,4.8986,4.8986,4.8986,4.8986,4.8986,4.8986,4.9108,4.9095,4.9093,4.9077,4.9072,4.906,4.9055,4.9048,4.9042,4.9026,4.9017,4.9012,4.9003,4.899,4.8979,4.8976,4.8972,4.8969,4.8967,4.898,4.8982,4.8984,4.8987,4.8968,4.8968,4.8954,4.8953,4.8953]}]]